FDX1875 KOAK-PHNL

Flight info

Callsign FDX1875
Flight time N/A
Altitude 38000
Route HUSSH2 GOBBS ALCOA 37N130W 34N140W HALLI A332 AUNTI R463 APACK MAGGI3
Aircraft B77L/H-SDE1E2E3FGHIJ2J3J4J5M1RWXY/LB1D1

Departure

Time 2026-05-01 12:06
Airport San Francisco Bay Oakland International Airport (KOAK)

Arrival

Time N/A
Airport Daniel K. Inouye International Airport (PHNL)
Time Latitude Longitude Altitude Speed Heading
2026-05-01 11:46 37.71744 -122.21984 20 ft 0 kts 319°
2026-05-01 11:57 37.71739 -122.21979 20 ft 4 kts 319°
2026-05-01 11:57 37.71721 -122.21959 20 ft 4 kts 315°
2026-05-01 11:57 37.71708 -122.21938 20 ft 4 kts 275°
2026-05-01 11:58 37.71712 -122.21915 22 ft 4 kts 231°
2026-05-01 11:58 37.71728 -122.21893 21 ft 1 kts 229°
2026-05-01 12:00 37.71727 -122.21894 20 ft 1 kts 229°
2026-05-01 12:00 37.71698 -122.21936 23 ft 9 kts 228°
2026-05-01 12:00 37.71605 -122.22046 21 ft 9 kts 197°
2026-05-01 12:01 37.71548 -122.22012 22 ft 10 kts 134°
2026-05-01 12:01 37.71489 -122.21982 21 ft 10 kts 197°
2026-05-01 12:01 37.71431 -122.22041 20 ft 12 kts 226°
2026-05-01 12:01 37.71377 -122.22120 22 ft 12 kts 229°
2026-05-01 12:02 37.71320 -122.22199 21 ft 12 kts 225°
2026-05-01 12:02 37.71258 -122.22270 20 ft 12 kts 220°
2026-05-01 12:02 37.71193 -122.22338 19 ft 12 kts 219°
2026-05-01 12:02 37.71108 -122.22416 13 ft 13 kts 199°
2026-05-01 12:03 37.71028 -122.22368 13 ft 13 kts 134°
2026-05-01 12:03 37.70956 -122.22260 13 ft 20 kts 129°
2026-05-01 12:03 37.70864 -122.22120 13 ft 21 kts 129°
2026-05-01 12:03 37.70772 -122.21980 14 ft 21 kts 130°
2026-05-01 12:04 37.70679 -122.21842 14 ft 21 kts 130°
2026-05-01 12:04 37.70587 -122.21706 13 ft 21 kts 131°
2026-05-01 12:04 37.70494 -122.21568 14 ft 21 kts 129°
2026-05-01 12:04 37.70399 -122.21432 14 ft 21 kts 138°
2026-05-01 12:05 37.70279 -122.21361 13 ft 17 kts 168°
2026-05-01 12:05 37.70206 -122.21511 15 ft 13 kts 307°
2026-05-01 12:05 37.70340 -122.21714 13 ft 64 kts 310°
2026-05-01 12:06 37.70800 -122.22407 12 ft 139 kts 309°
2026-05-01 12:06 37.71535 -122.23497 232 ft 173 kts 310°
2026-05-01 12:06 37.72333 -122.24667 868 ft 177 kts 300°
2026-05-01 12:06 37.72786 -122.26104 1492 ft 179 kts 284°
2026-05-01 12:07 37.73183 -122.27647 2085 ft 194 kts 286°
2026-05-01 12:07 37.73659 -122.29377 2382 ft 224 kts 288°
2026-05-01 12:07 37.74225 -122.31350 2823 ft 248 kts 289°
2026-05-01 12:07 37.74972 -122.33340 3539 ft 257 kts 308°
2026-05-01 12:08 37.76444 -122.34659 4370 ft 263 kts 336°
2026-05-01 12:08 37.78147 -122.35498 5187 ft 270 kts 338°
2026-05-01 12:08 37.79907 -122.36376 6138 ft 273 kts 338°
2026-05-01 12:08 37.81656 -122.37331 6983 ft 275 kts 328°
2026-05-01 12:09 37.83006 -122.39067 7685 ft 285 kts 298°
2026-05-01 12:09 37.83519 -122.41484 8546 ft 289 kts 270°
2026-05-01 12:09 37.83155 -122.43986 9330 ft 293 kts 252°
2026-05-01 12:09 37.82484 -122.46459 10080 ft 300 kts 251°
2026-05-01 12:10 37.81766 -122.48997 10661 ft 317 kts 251°
2026-05-01 12:10 37.80162 -122.54692 11384 ft 364 kts 251°
2026-05-01 12:10 37.79313 -122.57751 12270 ft 371 kts 252°
2026-05-01 12:11 37.77603 -122.63965 14322 ft 376 kts 253°
2026-05-01 12:11 37.77028 -122.67180 15003 ft 377 kts 269°
2026-05-01 12:11 37.77097 -122.70497 15577 ft 381 kts 274°
2026-05-01 12:12 37.77242 -122.73864 16325 ft 384 kts 275°
2026-05-01 12:12 37.77389 -122.77233 17165 ft 385 kts 275°
2026-05-01 12:12 37.77529 -122.80625 17901 ft 388 kts 274°
2026-05-01 12:12 37.77660 -122.84047 18585 ft 392 kts 274°
2026-05-01 12:13 37.77780 -122.87461 19236 ft 396 kts 274°
2026-05-01 12:13 37.77897 -122.90951 19908 ft 399 kts 274°
2026-05-01 12:13 37.78009 -122.94477 20602 ft 403 kts 274°
2026-05-01 12:13 37.78120 -122.98034 21295 ft 407 kts 273°
2026-05-01 12:14 37.78230 -123.01632 22046 ft 411 kts 273°
2026-05-01 12:14 37.78337 -123.05252 22817 ft 414 kts 273°
2026-05-01 12:14 37.78443 -123.08907 23578 ft 417 kts 273°
2026-05-01 12:14 37.78549 -123.12580 24298 ft 420 kts 273°
2026-05-01 12:15 37.78620 -123.15032 24744 ft 423 kts 272°
2026-05-01 12:15 37.78729 -123.18779 25438 ft 426 kts 272°
2026-05-01 12:15 37.78834 -123.22539 26141 ft 429 kts 272°
2026-05-01 12:15 37.78939 -123.26315 26796 ft 432 kts 272°
2026-05-01 12:16 37.79078 -123.31374 27618 ft 436 kts 272°
2026-05-01 12:16 37.79149 -123.33960 28034 ft 438 kts 272°
2026-05-01 12:16 37.79253 -123.37825 28645 ft 440 kts 272°
2026-05-01 12:16 37.79357 -123.41707 29244 ft 443 kts 272°
2026-05-01 12:17 37.79460 -123.45610 29786 ft 446 kts 272°
2026-05-01 12:17 37.79562 -123.49495 30257 ft 449 kts 272°
2026-05-01 12:17 37.79664 -123.53451 30758 ft 451 kts 272°
2026-05-01 12:17 37.79764 -123.57422 31290 ft 451 kts 272°
2026-05-01 12:18 37.79863 -123.61375 32047 ft 446 kts 272°
2026-05-01 12:18 37.79958 -123.65284 32773 ft 441 kts 272°
2026-05-01 12:18 37.80051 -123.69135 33429 ft 437 kts 272°
2026-05-01 12:18 37.80144 -123.72963 33995 ft 435 kts 271°
2026-05-01 12:19 37.80235 -123.76773 34543 ft 432 kts 271°
2026-05-01 12:19 37.80324 -123.80562 35054 ft 430 kts 271°
2026-05-01 12:19 37.80412 -123.84338 35527 ft 428 kts 271°
2026-05-01 12:19 37.80497 -123.88058 35946 ft 428 kts 271°
2026-05-01 12:20 37.80663 -123.95586 36051 ft 428 kts 271°
2026-05-01 12:20 37.80827 -124.03104 36039 ft 427 kts 271°
2026-05-01 12:21 37.80985 -124.10607 36047 ft 426 kts 271°
2026-05-01 12:21 37.81137 -124.18101 36046 ft 426 kts 271°
2026-05-01 12:22 37.81286 -124.25597 36051 ft 426 kts 271°
2026-05-01 12:22 37.81427 -124.33044 36047 ft 427 kts 271°
2026-05-01 12:23 37.81565 -124.40553 36044 ft 427 kts 271°
2026-05-01 12:23 37.81700 -124.48053 36043 ft 427 kts 271°
2026-05-01 12:24 37.81829 -124.55562 36047 ft 427 kts 270°
2026-05-01 12:24 37.81953 -124.63080 36045 ft 428 kts 270°
2026-05-01 12:25 37.82132 -124.74376 36051 ft 429 kts 270°
2026-05-01 12:26 37.82245 -124.81915 36053 ft 429 kts 270°
2026-05-01 12:26 37.82406 -124.93239 36045 ft 429 kts 270°
2026-05-01 12:27 37.82555 -125.04557 36044 ft 429 kts 270°
2026-05-01 12:28 37.82694 -125.15831 36042 ft 429 kts 269°
2026-05-01 12:29 37.82821 -125.27146 36044 ft 429 kts 269°
2026-05-01 12:29 37.82941 -125.38459 36043 ft 428 kts 269°
2026-05-01 12:30 37.83046 -125.49776 36043 ft 428 kts 269°
2026-05-01 12:31 37.83111 -125.57305 36045 ft 428 kts 269°
2026-05-01 12:31 37.83172 -125.64832 36043 ft 428 kts 269°
2026-05-01 12:32 37.83226 -125.72307 36047 ft 428 kts 269°
2026-05-01 12:32 37.83084 -125.83577 36052 ft 426 kts 263°
2026-05-01 12:33 37.82008 -125.90916 36048 ft 425 kts 256°
2026-05-01 12:33 37.80657 -125.98210 36048 ft 426 kts 256°
2026-05-01 12:34 37.79311 -126.05491 36042 ft 425 kts 256°
2026-05-01 12:34 37.77978 -126.12748 36052 ft 426 kts 256°
2026-05-01 12:35 37.76639 -126.20041 36045 ft 426 kts 256°
2026-05-01 12:35 37.75299 -126.27332 36045 ft 426 kts 256°
2026-05-01 12:36 37.73950 -126.34628 36044 ft 426 kts 256°
2026-05-01 12:36 37.72596 -126.41926 36047 ft 426 kts 256°
2026-05-01 12:37 37.71238 -126.49220 36050 ft 426 kts 256°
2026-05-01 12:37 37.69876 -126.56516 36044 ft 427 kts 256°
2026-05-01 12:38 37.68508 -126.63806 36049 ft 427 kts 256°
2026-05-01 12:38 37.67134 -126.71108 36046 ft 427 kts 256°
2026-05-01 12:39 37.65766 -126.78350 36046 ft 427 kts 256°
2026-05-01 12:39 37.64381 -126.85651 36049 ft 427 kts 256°
2026-05-01 12:40 37.62996 -126.92937 36038 ft 427 kts 256°
2026-05-01 12:40 37.61605 -127.00225 36051 ft 427 kts 256°
2026-05-01 12:41 37.60210 -127.07504 36042 ft 427 kts 255°
2026-05-01 12:41 37.58820 -127.14735 36039 ft 427 kts 255°
2026-05-01 12:42 37.57417 -127.22000 36050 ft 426 kts 255°
2026-05-01 12:42 37.56012 -127.29260 36046 ft 426 kts 255°
2026-05-01 12:43 37.54603 -127.36514 36044 ft 426 kts 255°
2026-05-01 12:43 37.53188 -127.43763 36036 ft 426 kts 255°
2026-05-01 12:44 37.51769 -127.51007 36036 ft 426 kts 255°
2026-05-01 12:45 37.48921 -127.65484 36043 ft 425 kts 255°
2026-05-01 12:45 37.47499 -127.72671 36054 ft 425 kts 255°
2026-05-01 12:46 37.46067 -127.79891 36044 ft 425 kts 255°
2026-05-01 12:46 37.44630 -127.87111 36048 ft 425 kts 255°
2026-05-01 12:47 37.43188 -127.94324 36042 ft 425 kts 255°
2026-05-01 12:47 37.41737 -128.01551 36053 ft 425 kts 255°
2026-05-01 12:48 37.40286 -128.08761 36055 ft 425 kts 254°
2026-05-01 12:48 37.38832 -128.15967 36049 ft 425 kts 254°
2026-05-01 12:49 37.37383 -128.23127 36046 ft 425 kts 254°
2026-05-01 12:49 37.35921 -128.30323 36051 ft 425 kts 254°
2026-05-01 12:50 37.34452 -128.37519 36043 ft 425 kts 254°
2026-05-01 12:50 37.32981 -128.44712 36051 ft 425 kts 254°
2026-05-01 12:51 37.31505 -128.51903 36049 ft 425 kts 254°
2026-05-01 12:52 37.29280 -128.62691 36047 ft 425 kts 254°
2026-05-01 12:52 37.27053 -128.73436 36043 ft 425 kts 254°
2026-05-01 12:53 37.24807 -128.84221 36051 ft 425 kts 254°
2026-05-01 12:54 37.23302 -128.91413 36042 ft 425 kts 254°
2026-05-01 12:54 37.21043 -129.02181 36046 ft 425 kts 253°
2026-05-01 12:55 37.18778 -129.12913 36047 ft 424 kts 253°
2026-05-01 12:56 37.17273 -129.20022 36052 ft 424 kts 253°
2026-05-01 12:56 37.15755 -129.27163 36055 ft 423 kts 253°
2026-05-01 12:57 37.14235 -129.34298 36057 ft 423 kts 253°
2026-05-01 12:57 37.11944 -129.45000 36053 ft 424 kts 253°
2026-05-01 12:58 37.10412 -129.52124 36055 ft 424 kts 253°
2026-05-01 12:59 37.08114 -129.62779 36058 ft 424 kts 253°
2026-05-01 12:59 37.05794 -129.73481 36056 ft 424 kts 253°
2026-05-01 13:00 37.03466 -129.84168 36051 ft 424 kts 253°
2026-05-01 13:01 37.01130 -129.94854 36056 ft 424 kts 253°
2026-05-01 13:02 36.98707 -130.05460 36056 ft 424 kts 251°
2026-05-01 13:07 36.79495 -130.81228 36066 ft 422 kts 251°
2026-05-01 13:08 36.77706 -130.88194 36066 ft 422 kts 251°
2026-05-01 13:08 36.75912 -130.95163 36064 ft 422 kts 251°
2026-05-01 13:09 36.74113 -131.02118 36071 ft 422 kts 251°
2026-05-01 13:09 36.72338 -131.09021 36058 ft 421 kts 251°
2026-05-01 13:10 36.70532 -131.15952 36072 ft 419 kts 250°
2026-05-01 13:10 36.68707 -131.22855 36069 ft 420 kts 251°
2026-05-01 13:11 36.66915 -131.29814 36073 ft 423 kts 251°
2026-05-01 13:11 36.65091 -131.36795 36071 ft 425 kts 251°
2026-05-01 13:12 36.63249 -131.43801 36069 ft 425 kts 250°
2026-05-01 13:12 36.61406 -131.50806 36065 ft 425 kts 250°
2026-05-01 13:13 36.59577 -131.57746 36064 ft 424 kts 250°
2026-05-01 13:13 36.57731 -131.64722 36059 ft 424 kts 250°
2026-05-01 13:14 36.55883 -131.71684 36067 ft 423 kts 250°
2026-05-01 13:14 36.54035 -131.78640 36063 ft 423 kts 250°
2026-05-01 13:15 36.52196 -131.85535 36062 ft 423 kts 250°
2026-05-01 13:15 36.50341 -131.92475 36059 ft 423 kts 250°
2026-05-01 13:16 36.48481 -131.99404 36062 ft 422 kts 250°
2026-05-01 13:16 36.46623 -132.06318 36066 ft 422 kts 250°
2026-05-01 13:17 36.42892 -132.20136 36064 ft 422 kts 250°
2026-05-01 13:18 36.40089 -132.30484 36067 ft 421 kts 250°
2026-05-01 13:18 36.38214 -132.37378 36062 ft 421 kts 250°
2026-05-01 13:19 36.36335 -132.44269 36070 ft 421 kts 250°
2026-05-01 13:20 36.33510 -132.54598 36069 ft 421 kts 250°
2026-05-01 13:20 36.31632 -132.61443 36067 ft 422 kts 250°
2026-05-01 13:21 36.28785 -132.71786 36062 ft 422 kts 250°
2026-05-01 13:21 36.26885 -132.78663 36059 ft 421 kts 250°
2026-05-01 13:22 36.24985 -132.85523 36058 ft 421 kts 250°
2026-05-01 13:22 36.23081 -132.92379 36048 ft 420 kts 250°
2026-05-01 13:23 36.21178 -132.99221 36044 ft 419 kts 250°
2026-05-01 13:23 36.19287 -133.05998 36049 ft 419 kts 250°
2026-05-01 13:24 36.17381 -133.12808 36057 ft 418 kts 250°
2026-05-01 13:25 36.14519 -133.23002 36053 ft 417 kts 250°
2026-05-01 13:25 36.12609 -133.29783 36052 ft 417 kts 250°
2026-05-01 13:26 36.10701 -133.36556 36054 ft 416 kts 250°
2026-05-01 13:26 36.08791 -133.43311 36051 ft 416 kts 249°
2026-05-01 13:27 36.06876 -133.50059 36063 ft 416 kts 249°
2026-05-01 13:27 36.04011 -133.60127 36052 ft 416 kts 250°
2026-05-01 13:28 36.01131 -133.70219 36059 ft 415 kts 249°
2026-05-01 13:29 35.97279 -133.83651 36054 ft 414 kts 249°
2026-05-01 13:31 35.91489 -134.03728 36063 ft 413 kts 249°
2026-05-01 13:32 35.86654 -134.20380 36066 ft 414 kts 249°
2026-05-01 13:33 35.81764 -134.37111 36070 ft 415 kts 249°
2026-05-01 13:34 35.77825 -134.50525 36068 ft 416 kts 249°
2026-05-01 13:35 35.74871 -134.60548 36068 ft 417 kts 249°
2026-05-01 13:36 35.71888 -134.70626 36069 ft 418 kts 249°
2026-05-01 13:36 35.68886 -134.80736 36065 ft 420 kts 249°
2026-05-01 13:37 35.66876 -134.87480 36068 ft 420 kts 249°
2026-05-01 13:37 35.64860 -134.94237 36068 ft 421 kts 249°
2026-05-01 13:38 35.61824 -135.04369 36061 ft 421 kts 249°
2026-05-01 13:39 35.59793 -135.11130 36065 ft 422 kts 249°
2026-05-01 13:39 35.57754 -135.17901 36071 ft 422 kts 249°
2026-05-01 13:40 35.55723 -135.24627 36061 ft 423 kts 249°
2026-05-01 13:40 35.53670 -135.31415 36048 ft 424 kts 249°
2026-05-01 13:41 35.51611 -135.38206 36053 ft 424 kts 249°
2026-05-01 13:41 35.49548 -135.44994 36054 ft 424 kts 249°
2026-05-01 13:42 35.47477 -135.51792 36052 ft 425 kts 249°
2026-05-01 13:42 35.45407 -135.58571 36053 ft 424 kts 249°
2026-05-01 13:43 35.43344 -135.65310 36057 ft 424 kts 249°
2026-05-01 13:43 35.41264 -135.72090 36058 ft 424 kts 249°
2026-05-01 13:44 35.39182 -135.78855 36058 ft 424 kts 249°
2026-05-01 13:44 35.37098 -135.85616 36050 ft 424 kts 249°
2026-05-01 13:45 35.35011 -135.92376 36052 ft 423 kts 249°
2026-05-01 13:45 35.32932 -135.99079 36060 ft 423 kts 249°
2026-05-01 13:46 35.30847 -136.05814 36050 ft 423 kts 250°
2026-05-01 13:46 35.28746 -136.12565 36062 ft 425 kts 249°
2026-05-01 13:47 35.26631 -136.19346 36061 ft 427 kts 249°
2026-05-01 13:47 35.24503 -136.26151 36052 ft 429 kts 249°
2026-05-01 13:48 35.22370 -136.32962 36057 ft 429 kts 249°
2026-05-01 13:48 35.20230 -136.39776 36051 ft 429 kts 249°
2026-05-01 13:49 35.18086 -136.46590 36056 ft 429 kts 249°
2026-05-01 13:49 35.15935 -136.53401 36047 ft 429 kts 250°
2026-05-01 13:50 35.13799 -136.60162 36057 ft 429 kts 249°
2026-05-01 13:50 35.11643 -136.66965 36057 ft 430 kts 250°
2026-05-01 13:51 35.11380 -136.67797 36060 ft 430 kts 250°